Wind_Speed
27 27 27 26 26 21 20 20 19 18 19 18 19 19 20 19 20 16 14 12 10 7 6 6 6 6 8 7 7 8 5 10 13 15 14 16 15 8 5 5 6 4 4 5 5 8 15
31 28 28 27 26 20 20 18 18 18 19 17 18 17 19 18 17 13 11 9 6 4 5 5 4 6 8 4 1 1 8 7 13 16 17 17 8 12 3 3 5 4 6 6 5 13 16
33 30 28 27 26 21 19 18 17 18 18 16 16 16 17 17 15 10 7 5 5 4 5 4 4 8 11 11 3 10 7 2 10 11 15 17 15 7 3 3 4 8 6 6 6 5 4
34 33 30 28 25 22 19 18 17 18 18 15 14 15 15 15 12 7 5 5 5 5 5 4 5 9 8 3 6 7 3 1 4 10 10 10 13 12 4 3 4 3 4 4 1 3 4
33 34 32 29 27 24 20 19 18 18 16 14 13 14 14 13 9 6 5 6 6 6 5 3 5 5 7 2 5 2 1 3 2 3 8 3 11 6 4 4 3 7 4 3 4 11 3
35 35 34 31 28 25 22 21 19 18 15 14 12 13 12 11 8 7 7 8 7 5 5 3 5 2 3 1 4 1 2 2 3 12 11 9 5 3 3 3 5 4 5 2 5 5 11
35 34 35 33 30 27 24 22 21 17 14 13 11 11 11 9 9 9 12 10 3 3 10 7 2 2 2 6 5 2 3 5 3 4 3 1 3 4 3 2 3 5 4 6 3 1 7
35 39 36 35 31 28 26 24 22 17 15 12 10 10 10 12 11 13 14 5 3 1 3 14 16 16 12 6 3 5 1 2 3 3 2 5 4 1 5 4 5 4 6 4 5 2 5
47 37 36 36 32 29 27 25 23 18 16 12 10 10 11 13 14 15 13 5 2 4 1 4 9 7 2 9 5 5 3 3 4 3 3 5 2 2 4 3 5 3 6 4 5 6 6
47 42 35 37 34 31 29 27 24 20 17 13 11 12 14 15 13 11 9 3 3 2 3 4 3 1 4 5 2 4 5 2 4 4 4 5 2 3 4 3 2 4 3 9 13 2 3
49 46 38 38 37 32 30 29 25 22 18 15 14 15 17 19 8 12 4 4 4 4 3 4 3 2 4 4 7 3 2 3 6 5 3 1 2 2 5 1 1 3 8 10 3 4 4
42 45 40 39 40 33 32 31 27 24 20 18 17 19 21 22 10 7 7 5 7 6 3 2 3 2 3 4 3 1 3 7 6 5 5 3 3 2 3 2 4 10 6 6 3 2 1
45 45 44 39 42 35 34 33 29 25 22 21 20 23 24 18 10 9 6 8 4 4 2 2 3 2 3 2 4 4 4 4 2 4 4 4 2 2 2 5 3 4 4 2 1 1 3
44 42 45 41 43 37 36 35 31 27 24 23 23 24 24 18 12 7 8 4 3 3 5 1 3 3 4 2 3 4 3 3 5 4 3 3 1 3 4 2 4 2 4 4 5 3 2
42 42 48 44 44 39 37 36 33 29 26 25 25 24 24 17 13 10 6 4 6 6 3 6 3 5 1 2 4 4 3 2 1 1 4 3 1 2 4 1 0 3 2 2 6 2 1
42 43 47 45 45 40 39 38 34 30 28 26 26 22 23 17 16 14 4 5 3 5 2 2 4 2 4 3 3 3 1 1 2 1 1 5 3 1 1 2 7 1 6 3 2 3 3
40 44 43 43 45 41 40 39 36 31 30 27 25 12 19 20 17 10 4 5 5 7 6 5 5 4 3 4 3 2 5 1 1 1 3 3 3 2 1 1 4 3 2 6 4 1 2
39 45 45 44 44 41 41 39 36 35 31 32 20 4 24 21 4 2 4 5 2 4 3 4 4 4 5 3 4 4 6 1 2 2 4 1 4 3 1 1 1 1 3 4 3 4 1
39 39 43 44 43 43 42 39 36 36 35 37 15 6 21 21 4 1 2 2 2 2 1 2 3 3 2 4 4 2 3 2 2 3 5 5 1 3 2 2 1 2 3 4 5 2 5
38 41 48 43 44 44 43 39 36 36 37 34 17 3 5 8 6 9 5 3 2 3 2 3 5 3 4 3 4 5 3 2 2 3 4 3 2 4 7 3 1 4 4 4 3 3 4
34 41 36 43 45 44 42 40 37 37 40 31 11 3 8 3 1 5 4 6 5 2 2 2 3 2 5 4 2 3 2 2 3 3 3 2 4 2 1 1 1 2 5 8 7 4 6
32 33 40 44 45 43 40 39 38 39 43 25 10 7 6 4 18 7 2 6 7 3 1 2 6 3 2 5 5 8 6 4 4 2 2 2 4 2 4 1 3 3 5 7 6 3 9
41 32 41 44 42 40 40 39 38 42 45 15 11 13 16 1 4 6 6 7 8 6 2 4 7 5 3 2 4 9 8 11 6 5 3 2 5 3 3 3 3 5 9 11 6 5 7
31 38 41 41 40 39 38 37 39 42 46 20 17 16 7 2 2 6 8 4 6 7 6 3 6 4 7 27 28 23 25 21 18 12 4 5 4 2 2 1 2 4 2 2 10 6 13
37 39 39 38 36 36 35 35 38 43 44 18 19 18 7 3 5 4 7 5 15 9 4 4 3 7 28 6 4 4 4 5 5 7 7 4 4 3 3 3 5 4 4 6 7 6 12
36 37 36 34 33 32 32 34 38 43 42 18 21 17 8 13 7 14 7 8 5 4 3 4 9 28 4 4 3 4 3 4 1 1 2 4 5 3 3 2 5 5 2 4 3 4 2
34 33 32 31 29 29 29 32 38 43 43 18 17 14 5 4 5 16 7 9 9 6 4 7 11 4 1 2 3 3 3 1 3 4 2 2 3 3 2 3 7 6 1 4 3 4 3
32 30 28 27 26 26 28 32 37 41 45 23 17 11 5 4 14 9 11 15 11 11 5 12 6 2 3 3 3 3 3 4 2 3 5 5 5 3 3 1 6 6 4 5 3 3 6
29 28 26 25 23 23 26 30 35 40 44 25 19 13 6 5 8 11 11 13 10 13 16 23 8 7 8 4 1 3 2 1 2 3 1 3 4 3 7 4 4 12 9 11 8 7 8
Wind_Direction
271 275 276 276 278 273 253 257 266 272 278 288 293 302 302 303 301 300 296 293 293 291 271 265 274 277 288 283 253 61 124 171 181 184 190 185 180 180 180 195 169 210 199 183 254 143 157
269 269 272 274 277 270 251 254 262 269 278 288 294 301 301 303 299 297 294 291 282 265 246 252 260 267 281 278 283 4 0 197 211 204 200 200 206 204 186 224 201 199 117 118 137 139 147
263 266 267 268 272 272 251 250 259 266 274 285 293 296 299 301 295 291 287 269 245 218 227 213 236 270 274 245 297 317 328 294 226 226 228 224 218 189 182 190 206 130 90 76 41 94 92
258 261 263 263 267 267 249 249 253 261 272 280 286 291 297 296 288 274 244 218 206 204 194 198 258 271 255 262 292 306 311 273 216 221 231 236 222 223 282 136 45 96 63 108 74 117 41
250 256 258 259 262 263 248 247 249 258 267 275 279 287 293 285 273 242 212 185 181 185 197 220 253 248 269 253 291 327 359 22 332 208 178 152 178 191 141 156 68 26 131 130 102 20 122
246 251 252 255 257 257 247 244 244 252 261 265 274 284 285 270 245 208 182 162 162 200 216 227 240 275 264 278 256 193 339 351 146 146 111 178 176 135 104 157 168 160 129 118 114 7 57
238 244 248 250 252 253 245 238 241 245 252 255 269 277 267 246 217 189 172 157 158 232 214 210 245 252 329 347 245 239 279 346 81 119 57 179 144 134 138 82 134 124 105 104 49 58 75
236 239 247 245 248 249 244 236 235 238 239 245 256 261 242 222 195 185 179 194 195 135 293 245 251 270 271 287 265 239 305 44 70 97 212 46 85 304 75 66 84 98 131 103 92 86 92
231 231 240 240 243 245 240 233 231 230 230 232 239 238 221 206 188 191 194 170 227 254 221 240 236 251 254 185 221 217 183 140 80 53 23 131 139 88 81 92 122 80 113 159 135 109 85
229 231 233 235 237 242 236 231 226 223 222 220 218 219 210 185 186 188 216 224 239 205 75 287 230 192 176 176 122 155 168 136 38 132 131 79 29 129 110 103 207 89 104 134 132 114 150
231 227 227 232 233 235 231 226 221 219 213 212 206 203 200 179 175 182 190 222 205 153 90 253 206 138 161 172 142 71 108 132 142 152 179 218 99 104 76 295 124 116 125 125 113 108 151
238 227 226 229 228 229 227 221 216 216 207 204 202 193 195 187 189 171 217 205 156 50 256 214 184 134 80 33 40 93 120 98 125 84 40 84 47 48 120 56 67 143 94 59 61 82 237
234 225 225 227 224 225 222 217 211 210 204 200 198 191 196 184 179 188 211 165 47 128 306 204 158 127 96 45 45 34 33 36 112 96 32 17 345 305 103 102 93 77 98 93 185 195 231
231 230 222 223 218 221 218 213 208 205 199 198 194 197 198 185 173 187 173 66 154 224 222 24 122 97 125 165 28 21 84 82 33 79 116 145 324 14 347 73 145 105 164 163 198 199 209
227 227 222 217 212 217 214 208 205 201 196 193 192 197 205 181 187 189 193 80 202 208 203 158 81 99 71 77 113 76 54 105 49 13 124 138 156 349 37 80 158 159 141 114 106 25 234
226 227 221 209 208 213 210 204 204 197 193 189 185 192 197 189 180 176 93 210 219 209 215 171 138 136 148 149 86 83 163 262 132 44 185 188 112 48 87 101 54 118 136 120 43 154 253
226 226 225 209 203 209 204 201 201 192 188 184 177 186 185 182 167 173 157 213 231 256 214 175 156 123 135 139 121 144 179 286 193 86 114 126 104 257 184 19 164 143 126 66 101 67 177
225 224 218 213 202 202 201 199 197 188 182 181 173 171 175 174 102 97 156 195 185 274 177 208 116 107 145 140 136 160 179 194 168 195 152 153 124 129 154 296 292 113 137 138 128 185 73
226 227 215 208 202 198 196 196 195 187 182 172 173 132 172 181 135 242 256 197 167 294 293 133 102 111 86 135 112 142 141 111 161 138 160 186 50 90 20 350 351 208 136 108 106 106 188
225 233 210 211 201 194 193 194 193 183 179 173 173 120 134 180 169 139 151 160 162 230 232 105 118 92 105 96 35 154 133 45 109 110 111 105 110 164 188 189 159 173 173 169 139 143 171
226 213 219 205 197 191 188 190 186 183 177 183 182 161 152 179 239 137 136 165 154 249 194 86 82 135 144 120 99 124 129 126 52 131 63 102 148 125 104 16 249 219 180 186 203 176 191
198 207 203 192 192 187 185 187 183 183 179 192 160 137 117 114 159 121 166 194 153 189 237 110 122 129 122 148 179 189 147 190 185 70 81 12 159 154 186 344 14 275 236 205 229 225 252
198 213 189 190 186 184 184 182 183 184 181 191 157 150 165 13 108 123 194 179 179 142 46 73 146 117 90 97 114 104 114 105 116 138 130 100 140 132 241 2 9 318 224 199 191 205 201
201 187 184 184 182 181 181 182 183 183 183 185 175 169 128 195 144 183 175 161 152 180 149 86 118 103 130 116 101 91 81 77 69 49 67 127 98 65 164 26 251 243 174 186 218 231 216
182 177 179 179 177 179 180 181 184 183 181 186 183 182 164 140 182 137 156 121 113 105 81 97 67 133 140 126 73 58 357 24 26 38 27 47 121 100 159 208 304 286 200 186 184 273 211
170 171 173 174 175 176 178 182 183 183 179 175 178 179 170 134 228 172 146 168 141 122 57 75 112 146 158 77 77 131 190 209 241 79 40 58 65 109 134 188 233 247 261 186 156 283 239
163 166 168 169 171 174 177 182 183 183 180 174 173 176 173 151 172 173 162 168 146 116 104 126 153 202 108 78 88 146 206 215 195 173 197 41 15 169 153 231 283 253 276 146 109 257 222
157 158 159 161 166 171 175 179 181 183 183 183 180 187 180 159 161 173 165 155 150 156 137 151 103 226 62 80 134 183 168 206 155 162 181 179 156 185 110 187 272 184 135 172 233 253 245
148 147 149 153 159 167 174 178 180 181 182 183 194 208 236 162 141 143 154 164 183 175 149 164 166 156 159 92 130 117 144 120 132 231 340 242 198 176 196 221 235 204 234 234 264 276 285
Height
1507 1508 1508 1507 1507 1508 1510 1513 1516 1516 1516 1515 1515 1514 1514 1511 1510 1508 1507 1506 1506 1506 1506 1507 1507 1508 1508 1506 1502 1500 1500 1501 1502 1503 1505 1507 1510 1512 1513 1514 1516 1517 1516 1516 1516 1519 1521
1503 1503 1504 1504 1504 1502 1506 1509 1511 1512 1512 1511 1512 1511 1511 1509 1508 1506 1504 1505 1505 1505 1505 1506 1507 1508 1507 1506 1499 1499 1500 1501 1501 1502 1503 1506 1507 1509 1511 1512 1514 1511 1515 1516 1518 1520 1522
1496 1498 1498 1499 1499 1500 1502 1504 1506 1508 1508 1508 1508 1508 1507 1507 1505 1503 1503 1503 1503 1503 1504 1505 1506 1506 1505 1500 1499 1498 1498 1499 1500 1501 1502 1505 1507 1510 1511 1513 1513 1513 1515 1516 1520 1521 1526
1490 1492 1494 1494 1495 1497 1497 1499 1502 1503 1505 1504 1505 1505 1504 1505 1503 1501 1501 1502 1502 1503 1504 1505 1506 1505 1500 1498 1497 1497 1497 1497 1498 1499 1502 1505 1508 1511 1511 1512 1512 1514 1517 1522 1523 1524 1527
1482 1485 1488 1489 1491 1493 1494 1496 1497 1500 1501 1501 1501 1502 1501 1502 1501 1500 1500 1501 1502 1503 1504 1504 1505 1505 1498 1497 1497 1497 1497 1498 1497 1498 1501 1504 1506 1509 1510 1512 1516 1519 1524 1525 1525 1526 1524
1473 1477 1480 1484 1486 1488 1489 1492 1493 1496 1497 1499 1498 1499 1498 1500 1499 1499 1500 1501 1502 1504 1504 1504 1505 1506 1498 1497 1496 1497 1497 1497 1497 1499 1502 1506 1506 1507 1511 1512 1523 1521 1525 1525 1526 1533 1530
1464 1468 1474 1477 1480 1483 1485 1486 1489 1492 1493 1495 1496 1496 1496 1497 1497 1498 1500 1501 1505 1505 1501 1498 1499 1497 1496 1496 1495 1495 1496 1496 1495 1496 1500 1503 1504 1508 1508 1510 1512 1516 1520 1526 1534 1536 1538
1455 1460 1465 1470 1474 1477 1480 1482 1484 1488 1489 1491 1492 1493 1494 1495 1495 1497 1499 1498 1499 1500 1497 1496 1498 1496 1496 1496 1496 1495 1496 1497 1496 1502 1502 1503 1510 1509 1509 1510 1513 1517 1525 1533 1538 1537 1537
1446 1451 1456 1463 1466 1471 1474 1476 1480 1484 1485 1488 1489 1491 1493 1493 1494 1497 1497 1498 1498 1497 1497 1495 1494 1494 1494 1496 1495 1495 1497 1496 1498 1502 1502 1507 1510 1508 1511 1516 1518 1521 1524 1533 1533 1538 1539
1436 1441 1447 1454 1458 1465 1469 1472 1476 1479 1482 1484 1486 1489 1491 1492 1497 1495 1496 1497 1497 1496 1503 1498 1494 1493 1493 1494 1496 1495 1495 1498 1499 1506 1507 1509 1510 1511 1514 1517 1516 1521 1522 1527 1533 1534 1538
1424 1432 1437 1445 1450 1457 1462 1467 1471 1475 1478 1481 1483 1486 1490 1491 1492 1493 1496 1495 1496 1497 1526 1495 1492 1492 1492 1494 1494 1495 1494 1496 1502 1504 1508 1514 1512 1513 1515 1518 1514 1523 1524 1526 1532 1535 1537
1413 1421 1428 1435 1443 1448 1456 1462 1466 1472 1474 1478 1480 1483 1488 1488 1490 1493 1494 1494 1496 1510 1520 1494 1489 1490 1492 1492 1494 1495 1496 1497 1500 1504 1505 1510 1510 1513 1514 1518 1514 1520 1525 1530 1536 1537 1543
1403 1410 1420 1426 1435 1440 1448 1455 1460 1467 1471 1474 1477 1481 1484 1486 1488 1490 1492 1494 1508 1517 1496 1496 1493 1490 1493 1497 1498 1497 1500 1502 1503 1512 1516 1514 1516 1514 1513 1516 1520 1520 1527 1540 1544 1546 1544
1394 1401 1409 1417 1425 1433 1441 1449 1455 1461 1466 1471 1474 1478 1480 1483 1485 1488 1490 1494 1507 1500 1498 1489 1490 1492 1496 1497 1500 1501 1503 1507 1505 1507 1519 1520 1525 1514 1513 1515 1518 1525 1525 1536 1551 1551 1540
1385 1391 1399 1407 1416 1425 1434 1443 1450 1456 1462 1466 1470 1476 1478 1481 1483 1486 1489 1510 1503 1498 1489 1490 1491 1496 1499 1497 1498 1503 1507 1509 1509 1507 1512 1520 1522 1515 1515 1515 1518 1526 1529 1533 1547 1561 1551
1376 1381 1389 1397 1407 1418 1428 1437 1444 1451 1458 1462 1467 1474 1475 1478 1480 1484 1489 1499 1491 1487 1485 1487 1494 1494 1501 1500 1502 1505 1507 1508 1508 1507 1507 1514 1523 1518 1517 1517 1520 1519 1528 1534 1541 1551 1553
1367 1373 1380 1388 1399 1410 1421 1430 1439 1447 1453 1460 1465 1473 1471 1475 1478 1481 1494 1492 1487 1482 1483 1486 1490 1495 1497 1499 1503 1506 1508 1508 1507 1507 1507 1512 1516 1523 1519 1520 1520 1525 1529 1539 1541 1550 1545
1359 1363 1370 1379 1392 1404 1415 1424 1433 1440 1448 1456 1462 1466 1466 1471 1477 1483 1488 1485 1482 1481 1481 1481 1482 1488 1494 1497 1502 1505 1505 1505 1506 1507 1509 1512 1520 1526 1522 1520 1520 1520 1524 1529 1537 1548 1560
1352 1356 1363 1373 1387 1398 1410 1419 1428 1434 1442 1450 1456 1460 1464 1467 1480 1487 1482 1481 1479 1480 1479 1480 1483 1484 1490 1497 1503 1504 1504 1506 1506 1507 1509 1510 1521 1531 1525 1523 1520 1520 1525 1531 1537 1545 1549
1343 1348 1357 1370 1383 1393 1405 1414 1424 1431 1439 1449 1453 1459 1462 1465 1468 1472 1478 1480 1480 1479 1479 1479 1483 1485 1491 1497 1500 1505 1506 1506 1506 1506 1508 1509 1520 1519 1522 1519 1521 1523 1524 1527 1526 1536 1539
1336 1340 1354 1365 1378 1390 1400 1411 1420 1428 1436 1444 1445 1449 1452 1467 1469 1470 1473 1477 1479 1480 1478 1477 1482 1484 1487 1498 1501 1505 1505 1507 1507 1508 1509 1510 1517 1522 1526 1526 1523 1520 1521 1524 1522 1523 1524
1331 1341 1350 1364 1377 1387 1397 1408 1415 1424 1432 1440 1441 1444 1452 1459 1461 1469 1473 1475 1477 1479 1478 1479 1482 1486 1486 1492 1492 1500 1500 1504 1503 1509 1511 1514 1522 1525 1526 1528 1527 1522 1519 1520 1522 1522 1520
1331 1339 1354 1366 1376 1385 1395 1402 1412 1420 1429 1437 1438 1441 1447 1462 1464 1468 1473 1473 1474 1476 1479 1478 1480 1485 1488 1490 1490 1491 1495 1497 1500 1505 1513 1517 1524 1524 1526 1533 1529 1526 1512 1511 1513 1512 1508
1332 1344 1355 1366 1375 1384 1391 1400 1409 1418 1427 1436 1437 1442 1446 1464 1463 1464 1466 1467 1470 1474 1477 1480 1482 1483 1491 1491 1493 1497 1499 1502 1505 1510 1511 1520 1523 1532 1527 1538 1527 1500 1503 1504 1503 1503 1502
1335 1345 1357 1366 1374 1382 1390 1397 1408 1417 1427 1434 1437 1441 1444 1459 1457 1461 1464 1466 1470 1474 1477 1481 1483 1485 1488 1490 1499 1505 1511 1510 1515 1516 1514 1514 1521 1535 1526 1528 1517 1498 1501 1503 1503 1494 1492
1339 1349 1358 1366 1374 1381 1388 1397 1405 1414 1426 1432 1436 1439 1443 1447 1454 1453 1460 1463 1469 1475 1480 1484 1485 1489 1490 1493 1502 1511 1512 1509 1511 1514 1517 1517 1519 1519 1538 1525 1520 1500 1497 1497 1498 1500 1488
1343 1352 1360 1367 1374 1381 1388 1396 1404 1413 1424 1431 1435 1438 1442 1443 1445 1450 1454 1459 1462 1468 1477 1483 1488 1490 1489 1499 1511 1510 1508 1512 1509 1516 1524 1525 1530 1524 1543 1522 1513 1498 1498 1498 1505 1498 1488
1349 1356 1363 1369 1374 1381 1388 1395 1402 1412 1422 1429 1433 1437 1440 1442 1445 1448 1450 1452 1457 1461 1470 1479 1487 1488 1491 1500 1505 1509 1511 1509 1510 1510 1515 1511 1520 1524 1540 1529 1513 1496 1499 1502 1492 1488 1488
1353 1359 1365 1371 1377 1382 1388 1394 1402 1411 1421 1428 1433 1435 1438 1441 1445 1447 1449 1451 1455 1457 1460 1470 1471 1475 1479 1492 1503 1508 1511 1515 1516 1506 1510 1511 1505 1507 1511 1502 1494 1494 1490 1490 1489 1488 1488